Wind_Gust
19 20 21 21 19 19 20 19 18 17 14 14 15 15 15 13 15 16 17 19 19 18 19 19 20 22 22 20 19 19 20 21 21 19 20 20 23 21 22 23 22 22 21 21 21 21 21 19 17 17 16 16 16 18 18 17 16 16 16 17 17 16 17 16 17 13 10 7 8 14 14 14 15 15 16 14 14 16 10 12 13 14 14 14 15
23 24 22 23 22 21 21 19 19 17 15 15 15 15 15 15 16 17 18 20 19 19 20 19 19 20 21 23 22 21 22 22 23 22 20 19 22 24 22 22 20 21 22 23 24 22 17 17 18 17 17 17 18 19 20 18 19 19 18 18 19 17 17 18 17 14 12 11 11 10 13 14 14 15 15 15 15 14 17 15 14 15 15 14 15
24 24 23 23 24 24 23 20 20 17 16 15 17 16 15 15 15 17 18 18 19 19 19 20 20 21 21 22 22 21 22 22 23 24 24 21 21 22 21 20 22 21 22 22 21 18 17 17 17 16 15 18 18 17 15 18 19 20 18 18 18 17 18 18 16 16 14 13 12 14 14 15 14 14 15 13 13 15 16 16 16 16 15 13 14
25 24 23 24 23 24 24 24 23 22 20 17 16 16 17 17 15 18 19 19 22 19 19 22 21 21 22 22 23 20 21 21 22 23 23 22 23 23 21 23 21 19 19 19 19 18 18 17 17 16 18 18 18 18 18 16 16 18 18 17 17 17 16 15 15 15 15 15 13 16 16 14 14 10 13 12 14 14 15 14 14 15 15 15 15
25 25 23 23 23 25 25 24 24 24 23 21 19 18 17 17 15 18 17 18 19 21 23 24 24 23 24 24 24 19 19 23 23 21 21 21 22 19 18 19 18 18 18 18 14 18 18 18 18 17 19 19 18 18 20 18 20 18 19 19 18 17 15 16 17 17 16 17 14 10 11 13 12 13 14 15 14 14 13 14 14 16 15 14 14
24 25 25 26 25 26 26 25 25 25 23 22 21 21 19 17 18 16 17 18 18 18 20 23 24 25 25 24 23 20 19 18 18 19 19 18 18 17 17 17 17 18 17 16 18 19 18 19 18 19 19 20 20 19 18 19 20 19 20 20 20 17 15 16 17 15 16 18 16 13 11 15 14 13 14 14 14 15 15 15 13 14 15 14 15
25 25 25 24 25 25 26 26 26 24 22 22 22 21 20 17 18 18 17 19 19 20 20 22 23 24 25 25 24 21 19 17 16 16 17 17 17 16 15 15 15 14 14 16 19 20 19 20 18 19 19 20 20 20 20 19 20 19 19 18 19 18 17 17 18 18 17 17 15 13 14 12 11 13 14 13 13 14 14 14 15 16 15 15 15
25 25 26 25 26 27 26 25 24 25 23 23 22 21 20 17 17 17 17 19 20 19 20 22 23 23 24 24 22 19 19 18 16 16 17 17 15 15 16 15 15 15 17 20 17 17 16 14 14 16 19 19 19 17 18 19 19 19 17 17 17 16 17 18 17 17 17 18 18 15 14 14 13 9 13 15 14 15 19 18 17 16 16 15 16
23 25 25 26 27 27 27 25 24 25 25 24 24 23 22 18 18 18 18 18 18 20 20 23 23 24 24 24 21 16 17 17 17 17 18 18 17 17 16 16 16 17 19 20 21 19 13 18 15 16 15 7 7 7 9 8 17 20 18 16 16 17 18 18 15 15 17 16 14 12 13 13 15 16 16 18 21 18 17 16 14 11 12 13 14
24 24 25 26 27 27 27 25 26 25 24 24 24 24 23 21 18 18 19 20 20 18 21 21 22 23 23 24 21 17 16 13 12 16 14 17 16 16 15 16 18 18 18 16 18 16 18 18 15 11 9 10 10 11 11 12 11 12 16 17 17 19 20 19 19 20 19 19 21 16 16 16 16 16 17 16 13 10 12 14 15 11 9 10 10
24 25 25 25 26 27 27 27 27 26 24 24 23 23 24 23 18 17 17 20 21 18 19 21 23 23 24 22 19 16 15 13 15 16 16 17 16 15 17 16 16 17 17 17 18 17 16 14 13 12 11 8 12 9 11 11 10 5 6 10 9 17 20 20 19 19 20 22 14 17 14 14 12 13 15 13 12 13 12 12 12 11 12 14 14
21 25 26 27 27 27 27 27 28 27 25 25 24 22 22 22 22 19 18 16 16 13 14 20 20 22 21 19 18 16 13 9 16 16 16 17 12 16 16 16 15 15 16 16 16 16 15 13 11 11 11 13 14 13 9 6 6 7 7 6 5 7 8 12 16 18 17 16 14 15 17 16 13 13 14 12 14 13 12 12 12 12 13 13 12
22 23 27 28 29 28 27 27 27 27 27 26 24 23 22 21 22 21 21 19 13 9 12 17 15 14 15 17 17 14 10 8 14 15 16 16 15 12 15 15 16 15 16 16 16 16 16 15 13 11 13 11 13 13 14 15 11 13 13 13 12 10 7 6 8 10 13 13 14 16 19 15 14 13 12 14 12 13 13 14 14 13 13 12 11
22 23 24 28 28 28 28 27 28 28 27 27 26 25 25 24 22 19 19 20 18 14 8 10 7 9 11 13 12 8 8 5 9 12 13 14 13 9 12 13 13 15 15 16 15 16 17 17 17 14 13 13 13 15 16 17 18 17 14 13 13 11 9 9 4 3 6 11 14 17 13 12 10 13 15 14 15 15 15 14 13 13 12 11 7
22 23 23 24 27 28 29 28 27 29 30 28 27 27 27 26 24 23 20 19 18 17 15 10 8 7 11 11 8 7 8 5 8 11 13 15 14 9 14 13 13 12 12 12 14 15 15 14 15 16 16 14 13 15 18 18 18 17 17 16 15 15 16 14 11 8 10 9 10 13 12 10 11 13 14 13 15 11 9 9 11 10 8 9 10
23 23 24 25 27 26 27 27 27 28 30 29 28 28 27 27 27 25 22 20 17 16 15 15 13 12 14 10 10 12 19 10 9 11 15 17 17 13 14 15 14 14 13 12 12 12 12 13 15 16 16 16 11 12 14 20 19 20 19 18 18 19 22 15 14 17 19 18 17 17 16 15 11 13 11 9 12 12 12 13 12 10 13 13 13
24 24 23 26 26 25 26 26 27 28 28 29 29 28 27 27 26 25 24 23 21 21 19 18 16 19 22 16 14 14 15 15 11 13 14 17 14 12 15 16 15 15 13 12 12 11 10 10 13 17 17 18 13 14 14 15 19 20 20 19 19 21 21 20 19 21 23 24 22 19 16 17 17 16 16 13 10 7 10 11 10 7 10 11 11
23 23 23 23 25 26 26 26 25 26 27 28 28 27 26 25 25 26 26 24 23 18 16 16 18 18 19 23 17 16 15 16 14 11 11 8 12 17 14 16 15 15 15 13 12 13 14 15 8 14 17 19 13 13 13 16 19 19 19 21 20 21 19 16 18 19 18 21 20 19 18 17 18 20 19 18 17 10 7 11 8 7 9 7 6
23 23 23 22 23 24 24 24 24 25 27 27 27 26 26 25 24 25 25 23 24 21 18 16 15 18 20 21 26 22 19 19 19 15 15 10 8 11 17 16 17 14 15 15 12 13 14 14 15 11 13 16 12 8 8 11 17 16 16 18 19 19 16 14 17 19 17 17 16 17 19 15 18 19 19 18 16 12 16 12 9 9 10 9 8
21 21 21 22 22 24 24 24 22 23 26 26 27 26 23 22 22 23 22 21 19 18 22 20 19 17 19 22 22 20 23 24 25 22 19 19 15 9 9 17 18 17 14 15 16 13 14 14 14 12 13 13 11 10 8 7 15 16 16 18 20 18 12 12 12 14 15 16 16 17 19 18 18 17 16 17 18 17 16 15 15 13 12 11 10
20 21 20 22 22 22 21 20 21 21 22 23 23 24 23 22 21 21 20 20 20 21 23 19 16 18 22 23 25 26 24 18 22 24 24 22 20 13 12 14 19 19 17 15 14 15 14 14 14 11 16 16 15 14 13 12 9 13 12 16 18 21 16 19 17 10 18 16 16 17 18 17 17 18 18 18 18 17 17 16 15 13 11 10 9
19 20 21 20 20 21 21 19 17 19 18 20 21 22 22 23 21 17 17 20 23 23 19 16 17 22 25 26 25 26 26 28 21 23 23 24 22 18 15 16 14 14 20 17 16 16 14 14 14 12 18 19 19 18 18 17 14 18 19 16 18 14 21 20 20 19 18 18 18 18 18 17 18 18 17 17 16 15 15 14 14 13 12 10 9
18 19 19 20 18 19 19 19 17 18 20 16 17 18 20 21 22 21 20 19 21 20 20 19 22 26 26 28 26 24 21 25 27 23 22 22 22 22 20 17 17 18 21 19 17 18 17 17 15 15 19 20 20 19 19 20 17 18 17 16 15 14 13 18 17 18 18 17 17 17 16 16 16 17 16 16 15 14 13 13 12 11 11 10 10
17 17 17 18 18 18 18 18 19 18 18 18 17 18 19 19 20 21 21 20 19 21 22 23 23 25 26 25 21 21 21 22 24 26 21 23 23 23 23 23 22 20 23 21 18 19 19 17 15 18 21 23 23 22 20 18 20 16 15 14 11 9 17 17 16 17 17 17 17 16 16 15 15 15 15 13 13 11 11 10 11 12 12 13 13
16 16 16 17 17 16 16 18 18 19 18 20 21 20 19 18 22 22 24 25 25 25 20 20 21 19 19 20 21 21 20 22 21 22 23 24 24 24 23 22 20 23 28 19 19 17 15 17 19 19 19 20 22 21 19 19 19 16 15 11 7 12 13 14 14 14 16 16 16 15 17 15 15 13 11 10 9 9 10 11 12 13 13 15 15
16 16 16 15 16 16 16 16 17 18 18 18 18 20 18 17 21 20 23 24 23 23 19 18 18 17 18 18 19 18 19 19 18 17 15 19 21 25 25 25 24 24 24 24 21 21 20 20 22 21 19 17 20 18 16 17 17 18 17 14 15 13 12 13 13 15 16 16 15 15 13 12 12 10 8 9 12 14 12 12 12 13 12 12 14
14 14 15 15 14 15 14 15 14 15 16 16 16 16 17 17 19 22 21 20 19 19 20 20 22 20 17 16 16 16 18 17 16 15 15 16 16 16 18 19 15 16 18 18 18 21 23 20 18 17 15 18 18 14 14 13 17 17 17 16 15 14 13 13 13 14 14 15 13 12 11 11 10 10 12 13 14 13 12 11 12 13 12 12 14
14 14 14 13 15 15 14 8 12 13 15 15 17 17 16 16 18 20 20 20 19 18 16 18 19 19 19 17 16 16 16 16 16 14 13 13 15 15 15 16 16 13 17 17 18 17 16 12 15 15 15 16 16 14 15 16 15 15 14 14 14 14 14 12 11 14 12 11 11 10 10 9 12 13 14 15 15 13 12 13 13 14 12 12 14
15 16 15 15 15 13 12 12 13 12 12 13 15 17 17 15 14 13 16 15 15 16 16 15 15 16 17 17 18 18 15 15 13 6 10 9 12 12 13 12 12 14 12 12 16 15 16 17 15 14 14 12 11 11 12 15 14 12 12 12 12 11 11 11 12 11 9 9 10 10 11 12 13 13 15 16 15 14 12 13 13 13 13 13 15
16 16 16 15 15 15 13 13 12 11 10 10 10 10 7 11 13 14 14 11 14 13 9 13 11 11 13 15 15 15 13 8 6 11 13 14 15 14 12 11 11 12 13 15 13 14 12 11 10 8 7 8 9 8 7 9 10 11 12 9 12 13 12 12 12 11 9 10 10 11 11 10 13 14 15 15 15 15 14 9 13 11 13 13 14
18 17 15 15 14 13 13 14 13 11 11 10 9 10 10 13 12 12 10 9 11 12 13 12 12 10 9 9 9 9 7 7 10 10 12 13 13 13 12 12 11 9 6 8 12 10 9 10 9 8 6 8 9 8 6 8 10 12 13 10 12 13 10 11 9 6 8 10 10 9 9 13 13 13 14 13 15 15 13 11 12 14 14 14 14
17 17 16 15 14 13 13 13 13 12 11 12 12 10 11 10 12 10 11 12 13 14 15 14 12 10 10 7 5 8 8 9 9 10 10 11 12 12 12 11 10 9 7 9 11 9 8 9 8 8 9 10 10 8 8 10 10 11 10 11 11 9 9 10 7 10 8 8 9 9 9 9 10 10 10 10 10 14 16 14 14 12 13 15 15
14 15 15 15 15 15 14 14 14 13 11 11 10 11 12 11 12 11 10 6 11 16 19 18 15 12 11 11 10 7 6 7 9 10 11 11 12 12 13 12 10 8 5 8 10 9 8 10 10 9 9 11 10 9 8 11 11 10 10 10 10 8 10 8 4 12 9 9 9 9 8 9 10 10 8 10 12 15 13 14 15 15 14 11 9
11 12 14 14 14 14 13 13 14 13 12 11 11 11 11 10 10 9 10 9 7 6 10 16 18 14 13 13 12 11 10 10 10 10 10 10 10 11 10 13 14 12 9 8 7 10 11 11 11 10 11 11 10 9 9 10 10 11 11 11 10 10 9 7 10 10 8 9 9 9 8 8 7 11 14 13 13 13 15 14 13 13 12 11 10
15 9 7 9 12 11 11 12 12 13 13 13 12 12 11 9 9 10 12 13 13 14 14 15 15 16 17 12 13 13 11 11 10 10 10 9 8 7 8 12 11 11 12 12 11 11 10 11 11 10 10 10 9 8 10 9 9 9 10 9 10 10 9 9 9 10 9 10 10 9 8 9 10 11 14 15 14 15 14 13 13 12 11 10 9
15 17 15 15 14 11 11 11 11 13 13 13 11 10 10 11 11 10 10 11 12 11 9 12 14 9 12 13 13 11 11 10 10 8 6 5 4 3 7 8 10 10 10 11 11 11 11 10 10 10 10 10 10 10 10 10 9 10 10 10 9 9 9 9 9 9 8 10 9 9 9 11 10 11 12 14 12 13 12 11 10 10 8 8 7
16 16 16 15 13 12 11 9 11 11 7 9 11 12 10 9 9 10 10 10 11 10 11 9 8 10 9 11 10 8 10 10 10 10 9 8 7 8 10 11 11 12 12 11 11 10 11 11 10 10 10 10 10 10 10 10 10 10 8 12 12 11 9 8 8 7 9 11 11 9 9 11 11 10 13 13 12 11 10 8 9 8 7 6 6
12 14 14 13 12 11 12 12 10 5 9 11 12 12 12 11 10 10 10 11 10 9 10 9 5 8 9 9 6 5 7 2 4 6 6 6 8 9 9 9 12 13 12 12 11 11 11 10 10 11 10 10 10 9 10 11 11 10 10 11 9 10 7 11 5 7 7 10 10 10 11 11 10 11 11 13 12 12 11 9 8 8 6 5 8
12 6 6 8 6 12 11 11 11 11 11 11 13 12 12 12 10 9 11 10 7 6 7 7 7 7 8 8 7 6 5 6 7 7 8 8 8 7 9 11 11 12 11 11 10 11 11 11 10 10 11 11 11 11 12 10 11 10 9 9 10 10 10 11 9 9 11 12 12 11 12 12 11 11 10 11 11 10 9 7 7 8 9 10 10
13 14 10 8 12 12 11 9 10 10 11 12 13 12 12 13 12 10 10 7 6 5 6 8 6 6 7 9 9 8 6 4 5 6 6 6 6 7 9 7 8 9 9 10 10 11 10 11 10 11 11 11 12 12 12 11 8 7 7 10 11 10 8 8 10 11 11 10 11 11 11 9 9 9 10 10 10 9 8 9 9 7 9 8 6
12 12 8 7 8 13 11 11 10 11 10 11 11 11 12 11 11 10 10 7 6 5 8 8 7 7 9 10 4 7 6 5 7 7 9 6 6 6 7 6 5 9 8 8 8 9 10 10 10 10 9 10 12 10 11 8 7 8 8 8 9 9 9 8 8 8 8 8 10 9 9 8 7 9 11 10 3 5 7 7 7 7 6 6 7
10 12 15 15 13 12 14 12 11 8 7 8 11 11 10 10 11 11 11 7 10 9 7 8 9 9 10 10 8 7 7 7 7 8 8 8 9 8 5 6 6 6 5 6 8 7 8 10 8 8 9 8 8 7 7 7 8 10 10 9 9 9 10 11 9 7 7 10 9 8 8 9 9 9 8 3 7 8 8 8 7 7 10 10 10
9 11 13 13 14 12 12 12 10 10 10 10 9 4 7 9 10 10 10 10 10 11 8 7 9 8 7 5 7 4 6 6 3 8 8 9 10 6 6 5 5 6 6 6 7 6 6 7 6 6 6 5 5 7 8 8 7 8 8 8 8 9 9 10 9 8 8 9 9 6 5 6 6 8 8 6 6 6 7 7 8 10 9 10 9
8 10 11 11 11 11 10 11 11 11 9 6 6 8 9 9 8 9 9 11 9 7 7 8 6 6 3 7 6 6 6 8 10 10 7 7 7 5 4 3 4 4 5 5 5 4 4 6 7 6 5 5 6 8 5 5 4 4 6 7 7 7 8 8 8 7 6 7 8 7 6 6 5 7 7 5 7 9 9 7 8 9 9 9 11
7 9 10 12 12 12 14 11 11 10 9 7 7 7 7 8 8 9 9 9 9 9 8 3 3 4 6 4 6 7 7 9 7 6 5 5 5 5 4 4 4 4 4 5 4 4 4 6 6 6 5 5 6 6 6 5 7 5 6 5 6 8 8 7 7 6 5 4 4 6 6 7 6 7 7 7 6 7 9 7 8 5 7 8 8
7 8 9 11 12 12 12 12 10 9 9 9 7 8 6 6 6 7 8 9 8 8 7 7 4 5 6 6 7 9 8 7 5 5 5 4 4 3 4 4 4 4 5 4 4 4 6 6 7 7 6 6 5 5 6 8 5 7 7 6 7 8 8 7 5 4 5 5 5 4 5 5 5 6 5 7 8 8 8 6 4 7 7 5 6
6 8 9 10 11 11 11 10 10 10 10 10 9 8 7 7 8 7 7 8 9 8 8 8 5 4 4 5 5 8 9 4 5 3 5 4 3 3 3 3 4 4 4 4 3 4 5 6 6 6 5 5 5 6 7 6 8 6 8 6 6 6 5 5 5 6 5 5 5 6 4 4 4 5 5 3 4 6 5 7 6 4 5 6 6
7 8 9 8 9 10 11 10 10 7 9 9 9 9 9 9 8 9 9 7 8 8 8 9 8 6 6 5 5 6 7 5 5 4 3 3 4 4 3 2 3 3 3 4 4 4 4 5 5 5 6 5 5 6 8 9 8 9 8 6 6 6 8 4 5 5 4 4 5 4 4 4 4 4 4 4 4 6 6 9 7 7 5 6 6
7 8 9 10 11 10 11 11 11 12 11 11 10 10 9 10 9 8 7 7 7 9 10 11 9 6 8 8 7 5 6 6 4 5 4 4 5 4 4 3 2 3 3 4 4 4 4 5 4 5 5 5 6 6 6 6 10 7 5 5 7 6 4 6 6 3 4 5 5 4 4 4 3 2 3 2 3 3 6 5 6 7 6 5 6
7 7 8 9 10 11 10 9 10 11 10 10 10 10 9 9 10 9 8 7 8 9 11 10 9 8 8 9 9 6 4 5 4 5 6 4 6 5 4 3 2 2 3 4 4 4 5 5 4 5 5 5 5 5 6 6 6 6 4 7 6 3 3 4 5 3 7 4 3 3 4 4 3 2 3 3 2 2 2 5 6 6 7 6 5
7 8 9 9 11 11 11 12 12 11 11 10 10 9 10 8 9 9 10 10 10 10 11 10 8 8 8 8 8 6 6 5 5 6 7 7 7 6 5 4 4 4 3 4 5 5 4 5 6 5 5 5 4 5 5 5 4 5 5 5 3 3 3 5 5 2 5 5 4 4 5 3 3 2 3 3 3 3 5 5 5 6 7 7 6
Wind_Speed
11 11 10 11 11 11 11 10 10 8 7 7 6 7 7 7 8 8 9 10 10 9 10 11 11 11 12 11 11 11 11 11 11 8 8 9 10 11 12 12 12 10 8 9 10 10 11 11 9 8 8 8 7 7 7 7 7 6 6 6 6 6 7 6 6 4 3 1 2 5 5 6 6 6 7 6 6 6 6 5 6 6 6 5 6
12 13 12 11 13 12 11 10 10 9 8 8 7 7 7 7 8 9 11 11 10 10 10 9 10 11 12 13 13 12 12 12 13 11 10 10 10 9 11 11 10 10 10 11 13 11 9 9 9 8 8 8 8 8 8 8 8 8 7 7 7 7 7 7 6 5 5 4 4 3 5 6 5 6 6 7 7 6 8 6 5 6 6 5 5
13 13 12 12 13 13 12 11 11 10 9 7 8 8 8 8 8 9 10 9 10 10 10 11 11 11 12 12 12 12 12 13 12 13 13 12 10 11 11 11 11 11 11 11 11 9 8 8 8 7 6 8 8 7 7 8 8 8 8 7 8 7 8 8 6 6 5 5 5 5 5 6 6 5 7 5 5 6 7 7 6 6 5 5 5
13 13 13 13 14 13 13 13 13 12 11 9 9 8 8 9 8 9 10 9 10 9 9 11 11 12 12 12 13 12 12 12 12 13 13 13 12 13 12 12 11 10 10 10 9 8 10 9 8 8 9 9 9 8 7 7 7 7 8 7 7 7 7 7 7 5 5 5 5 6 6 5 5 3 4 4 5 5 6 5 5 6 6 6 6
14 14 13 14 14 14 15 13 13 13 13 11 11 11 9 9 8 9 9 10 9 9 10 11 11 12 12 13 14 12 11 13 13 12 10 11 13 11 10 10 10 10 9 9 9 9 9 9 9 9 9 8 8 9 8 10 8 8 8 7 7 7 6 7 7 6 5 6 5 3 4 4 4 4 5 5 5 5 5 6 5 6 7 6 5
13 14 14 14 14 15 15 15 15 15 13 13 13 12 10 9 9 8 9 10 8 9 11 11 12 13 14 13 13 11 10 10 10 10 11 10 10 9 9 9 9 9 8 6 7 9 9 10 9 9 9 10 9 10 9 11 9 9 9 8 8 6 7 7 7 7 7 7 5 5 4 5 5 4 6 6 5 6 5 6 5 5 6 6 6
14 14 14 14 14 15 15 15 14 13 13 12 12 11 11 9 9 10 9 9 9 9 10 12 12 13 14 14 14 12 11 9 9 9 9 9 10 9 8 8 7 7 7 9 9 10 9 10 9 10 10 10 10 11 10 10 9 9 9 8 8 8 7 7 8 8 7 7 5 5 5 5 4 5 5 5 5 5 6 5 6 6 6 6 6
14 14 14 14 14 15 14 14 14 13 13 12 12 12 11 9 9 9 9 10 9 10 11 12 12 12 13 13 12 10 10 10 8 9 9 9 8 8 8 7 8 7 8 9 9 8 8 7 7 8 10 10 9 8 9 9 8 8 7 7 7 7 7 7 7 7 7 8 7 6 5 5 5 2 4 6 5 6 7 7 7 7 7 6 7
13 13 14 14 15 15 15 13 13 14 14 13 13 13 12 10 9 9 9 9 9 10 11 12 13 13 13 13 12 8 8 8 8 9 9 10 9 9 8 8 8 8 9 9 11 10 6 7 6 5 7 4 5 5 6 5 7 7 7 7 8 8 7 6 6 6 7 7 6 5 5 5 6 7 6 7 9 8 7 7 5 4 4 5 6
13 13 13 14 15 15 14 14 14 14 13 13 12 12 12 12 10 9 10 10 10 10 11 11 12 12 13 13 12 8 7 6 8 13 12 9 9 7 7 8 9 8 9 8 9 8 9 8 7 9 8 7 8 8 8 8 7 6 7 8 8 8 8 8 8 8 8 8 9 7 7 6 6 7 7 7 6 4 5 6 6 4 3 3 3
11 14 14 14 14 15 14 14 14 14 13 13 12 12 13 12 10 8 8 9 10 9 10 12 11 12 13 13 11 8 7 6 11 13 14 15 10 8 8 8 8 9 9 8 9 9 8 7 6 7 7 6 6 8 9 9 8 4 3 6 6 7 9 9 8 9 9 9 5 6 4 6 5 5 6 5 5 6 5 5 5 4 4 5 5
11 13 15 14 15 15 15 15 15 15 14 14 13 12 11 11 12 11 9 10 8 7 7 9 10 11 11 12 10 8 7 8 12 14 13 15 11 8 8 7 7 7 7 8 7 7 7 5 4 4 4 5 6 5 4 4 6 6 6 5 4 6 8 3 7 8 8 7 5 7 7 8 6 6 5 5 5 5 5 5 5 5 5 5 4
12 12 13 15 15 15 15 15 16 15 15 14 13 12 12 11 12 11 12 11 8 6 6 9 8 4 5 8 9 7 5 7 11 13 14 14 13 9 7 7 7 7 8 8 8 8 7 6 5 4 4 7 6 6 6 7 8 10 10 9 10 9 6 6 8 4 5 6 6 8 9 7 7 5 2 2 3 5 5 5 6 5 5 5 4
12 12 12 13 15 15 15 16 16 16 16 15 14 14 14 13 12 10 9 11 10 8 4 6 4 4 4 6 5 2 3 4 8 10 12 12 12 7 6 6 6 7 7 7 7 8 8 8 7 6 6 6 5 7 7 8 9 8 6 4 4 6 6 8 3 3 4 3 6 8 6 5 4 6 7 7 6 7 6 6 6 6 5 4 2
12 12 13 13 15 15 16 16 16 16 17 16 15 15 15 14 14 12 10 10 9 9 9 6 4 4 3 3 3 2 3 3 5 9 11 12 12 7 6 6 6 5 5 5 6 7 8 6 7 8 7 6 5 8 9 9 9 8 8 7 6 6 7 6 4 0 3 1 2 3 5 3 4 6 7 6 7 5 3 3 4 4 2 3 3
12 12 13 14 15 15 15 15 15 16 17 17 16 16 15 15 15 13 11 10 9 8 8 8 7 6 6 5 4 5 7 10 2 7 11 13 13 6 6 7 6 6 5 4 4 4 5 6 7 8 8 7 7 9 10 10 10 10 10 9 9 9 10 9 10 11 9 8 7 7 6 7 8 6 4 2 4 4 5 5 4 3 4 5 5
13 13 12 14 14 14 14 15 15 16 16 16 17 16 15 15 14 13 13 12 11 11 10 10 8 8 8 8 6 6 8 10 5 5 11 13 10 6 7 7 7 7 6 5 4 4 3 3 6 8 8 8 8 10 12 12 10 10 10 10 9 10 10 9 14 17 18 18 18 15 14 14 14 13 11 10 5 2 3 4 3 1 3 3 3
13 13 12 13 14 13 14 14 14 15 15 16 16 15 14 12 13 13 14 13 12 10 8 8 9 9 9 10 9 9 8 10 11 8 6 7 8 8 6 7 7 7 7 5 4 5 7 12 5 7 9 9 10 11 11 11 10 10 10 11 11 11 9 7 8 9 14 15 16 15 15 15 15 15 15 14 13 8 1 3 2 1 1 1 0
12 13 13 12 13 13 13 14 13 14 15 15 15 15 14 13 12 13 13 12 13 11 10 8 8 9 9 8 15 12 8 10 15 13 13 8 4 4 7 8 8 6 7 7 6 5 6 8 12 7 7 10 10 6 6 6 9 8 8 9 10 10 8 7 8 9 8 9 8 9 10 11 10 10 10 14 14 10 7 5 1 0 1 2 1
11 11 11 11 11 13 13 13 13 13 15 14 14 14 11 11 12 12 12 10 9 10 11 10 10 9 8 8 8 9 11 10 14 18 16 15 13 4 4 8 9 8 6 7 7 6 6 6 8 10 10 10 9 7 3 2 8 8 8 9 10 9 5 6 6 7 8 8 8 9 10 9 9 8 8 8 9 9 7 5 4 3 3 3 3
11 11 10 11 12 11 10 10 11 12 12 12 11 13 12 12 12 12 11 9 10 11 12 10 9 9 8 8 12 14 13 10 13 19 19 17 16 11 7 6 7 9 8 7 6 7 6 6 6 8 10 11 11 10 10 9 6 6 5 7 8 11 10 9 9 9 9 9 8 8 8 8 8 7 7 7 7 7 7 7 6 5 4 3 2
9 11 11 11 10 11 10 10 9 10 9 9 11 11 11 12 11 9 8 9 11 12 10 9 9 10 8 9 13 15 17 19 11 17 19 19 17 15 8 8 8 6 10 8 8 8 7 6 6 7 11 13 13 13 13 12 12 8 9 14 15 13 10 10 9 9 8 8 8 8 7 7 7 7 7 7 6 6 6 6 6 5 4 3 2
9 10 10 10 10 10 9 11 9 8 10 8 8 10 11 11 12 12 12 10 10 11 11 10 9 9 9 11 13 13 12 13 20 15 18 17 17 16 15 12 14 10 10 10 9 9 9 9 8 10 13 14 14 14 13 15 13 10 14 14 13 12 10 8 8 8 7 7 7 7 7 6 6 6 6 6 6 5 5 5 4 4 3 3 3
8 9 8 9 9 9 9 10 10 9 10 9 9 10 10 9 11 11 11 11 9 10 8 8 10 12 13 13 12 10 10 11 18 21 15 17 17 17 18 19 17 12 12 10 8 10 10 9 9 14 16 16 17 16 15 13 11 13 13 12 9 7 8 8 7 8 8 8 7 7 6 5 6 6 6 5 4 4 4 3 4 4 4 5 5
8 8 8 8 8 8 8 8 9 9 9 10 11 9 10 10 11 11 12 13 13 12 9 9 10 10 10 10 9 10 10 12 11 15 18 17 18 18 19 18 15 18 15 10 10 9 11 14 16 16 14 14 15 15 14 14 15 13 12 9 6 5 5 6 6 6 7 7 7 7 6 5 5 5 4 3 3 2 3 4 5 5 5 6 6
8 8 7 7 8 8 8 8 8 9 9 8 8 7 8 9 10 10 11 11 11 11 9 9 9 9 9 9 10 10 10 10 10 9 9 12 15 20 21 20 19 18 17 15 17 18 16 16 18 18 15 13 11 10 8 8 13 15 14 11 7 6 5 5 6 6 7 7 7 6 5 4 4 3 2 2 4 5 4 4 4 5 4 4 5
7 6 7 7 7 7 7 7 6 7 8 7 7 7 7 7 9 10 10 9 10 9 10 11 11 10 9 9 8 9 9 9 8 8 7 8 8 9 10 11 13 13 10 10 12 12 14 13 11 13 11 15 14 11 10 8 8 9 8 7 7 6 6 6 5 6 6 6 6 5 4 4 3 3 4 5 6 5 3 3 4 4 4 4 4
7 7 7 6 6 6 6 5 6 5 6 6 7 8 7 7 7 9 9 9 9 9 8 9 10 10 9 8 8 9 8 8 8 8 7 7 8 8 8 8 8 7 8 8 9 10 9 10 11 8 8 9 9 8 7 7 7 8 7 6 6 7 8 10 9 7 5 4 4 4 3 3 4 5 5 5 5 4 3 4 4 4 4 4 5
8 8 7 6 6 5 5 5 5 4 4 4 6 7 8 7 6 6 8 6 6 7 7 7 8 8 8 8 9 9 7 8 7 5 6 8 7 7 7 7 7 7 7 10 9 9 9 9 8 8 7 6 6 6 5 6 6 7 7 5 4 5 5 4 5 5 3 4 4 4 4 4 5 5 6 6 5 5 3 5 5 5 4 5 5
9 8 7 7 7 6 6 5 5 4 3 3 3 3 6 7 7 6 6 8 10 11 8 6 5 4 6 6 7 7 6 3 5 9 11 11 13 12 10 9 9 9 11 12 9 7 7 5 5 4 4 4 5 4 3 3 3 5 5 4 4 5 6 6 5 4 4 3 3 3 3 4 6 6 6 6 6 6 5 5 5 4 4 4 5
8 8 7 7 6 5 6 6 5 4 4 4 3 2 3 6 9 9 7 7 9 10 11 10 9 8 4 3 5 7 6 6 9 9 10 11 11 11 10 10 9 8 6 5 6 4 3 4 4 3 3 3 3 3 2 2 3 3 4 3 5 6 5 5 4 2 2 3 3 3 3 4 5 5 5 5 6 6 5 4 4 4 5 4 5
8 8 7 7 6 6 5 5 6 5 4 4 4 4 3 3 4 7 8 9 11 12 12 12 10 9 9 6 3 3 6 8 8 8 9 10 10 10 10 10 9 8 6 7 5 4 3 4 3 4 4 4 3 3 3 4 2 2 3 4 5 4 4 4 2 4 3 3 4 4 4 4 3 4 4 4 4 4 5 3 4 3 4 6 6
7 7 7 7 7 7 6 6 6 6 5 4 4 4 4 4 4 4 4 5 9 13 15 15 13 10 10 9 9 7 6 6 8 9 9 9 10 10 10 10 8 7 5 3 4 4 3 5 5 5 4 4 5 4 4 3 2 3 4 4 4 3 4 3 2 5 4 3 3 3 3 3 4 3 3 3 3 4 3 4 5 6 5 3 3
5 5 6 6 6 6 5 5 6 5 4 4 4 4 4 4 3 3 3 3 2 4 9 14 15 12 11 12 10 9 9 8 8 8 8 8 8 8 8 8 11 10 7 3 3 4 5 6 5 5 5 5 5 4 4 4 3 4 5 5 5 4 4 3 4 4 3 3 3 3 3 2 2 3 3 3 3 4 5 5 5 5 5 4 3
8 6 6 6 4 4 4 4 5 5 5 5 5 4 4 3 3 3 4 5 5 6 6 6 10 13 9 8 11 11 9 9 9 8 8 7 7 5 4 5 4 5 6 5 5 5 4 5 5 5 5 5 4 3 4 4 3 3 4 4 4 4 4 3 3 4 3 3 4 3 3 3 3 3 4 4 4 5 5 5 5 4 4 3 3
7 8 7 8 6 4 4 4 4 5 5 5 4 3 3 4 4 3 3 4 5 4 4 5 5 6 10 11 11 10 9 8 8 7 6 5 4 3 2 3 4 4 4 5 5 5 5 5 4 4 4 4 4 4 4 4 4 4 4 4 3 3 3 3 3 3 3 4 3 3 4 3 3 4 4 5 5 6 5 4 4 4 3 3 2
7 7 7 6 5 5 4 3 4 4 3 3 4 4 3 3 3 3 3 3 4 3 3 3 2 3 5 5 6 7 7 7 7 7 7 6 4 2 3 4 4 5 5 5 5 5 5 4 4 4 4 4 4 4 4 4 4 5 5 5 5 4 3 3 3 3 3 4 4 3 3 3 3 4 5 5 5 4 4 3 3 3 3 2 4
5 6 5 5 5 4 5 4 3 2 3 4 4 5 5 4 3 3 3 4 3 3 3 2 3 2 3 3 3 3 2 0 1 3 4 4 3 3 3 3 5 5 5 5 5 5 5 4 4 5 4 4 4 4 4 5 5 3 3 5 3 4 4 5 3 3 3 3 3 3 4 4 4 4 5 5 5 5 4 3 2 2 2 2 3
5 3 4 7 5 5 4 4 4 4 5 4 5 5 5 5 3 3 3 3 2 2 2 2 2 2 2 2 2 2 2 2 2 2 2 3 2 2 3 4 4 5 4 4 4 5 5 4 4 4 4 4 4 5 5 3 5 3 3 3 4 4 3 4 3 3 3 4 4 4 4 4 4 4 4 4 5 4 4 3 3 3 3 3 3
5 6 5 7 6 5 4 3 4 4 5 5 5 5 5 5 5 4 3 2 2 1 1 2 1 1 2 3 3 3 2 1 1 2 2 2 2 2 3 2 2 4 3 4 4 4 4 4 4 4 5 4 5 5 5 4 3 2 2 3 4 4 3 3 3 3 3 3 4 4 4 4 3 3 3 3 3 3 3 3 3 3 3 3 2
4 5 6 5 5 5 5 4 4 4 4 4 4 4 5 4 4 4 3 2 2 1 2 2 2 2 3 4 4 5 2 1 2 2 3 2 2 1 2 2 1 3 3 2 3 3 4 4 4 4 4 4 5 4 4 2 2 2 3 3 3 3 3 3 3 3 3 3 3 3 3 2 2 3 4 3 2 2 2 2 2 2 2 2 2
4 5 6 7 6 5 6 5 4 2 2 3 4 4 4 4 4 4 4 2 3 3 2 2 2 3 5 7 6 5 2 2 2 2 2 2 2 2 2 2 2 2 1 2 2 2 3 3 2 2 3 3 3 2 2 2 3 3 3 3 3 3 4 4 3 2 3 4 3 3 3 3 3 3 3 2 2 3 3 2 2 2 2 2 3
3 4 5 5 6 5 5 5 3 3 3 4 3 2 3 3 4 3 3 4 3 4 2 2 3 2 3 4 4 4 2 2 1 2 2 3 4 2 2 1 1 2 2 2 2 1 1 2 2 1 2 2 1 2 3 3 2 2 3 3 3 3 3 3 3 3 3 3 3 3 2 2 2 2 2 2 2 2 2 2 2 2 2 3 3
2 4 4 4 4 4 4 4 4 4 3 2 2 2 3 3 3 3 3 4 3 2 2 3 1 1 0 1 2 2 2 2 4 3 2 2 2 2 1 1 1 1 1 2 1 1 1 2 2 2 1 1 1 2 1 1 0 1 2 2 2 2 3 3 3 2 2 2 3 2 2 2 1 2 2 2 2 2 2 2 2 3 2 3 4
2 2 4 4 5 5 5 4 4 4 3 3 2 2 2 2 3 3 3 3 3 3 2 0 0 1 1 1 1 1 2 3 2 2 1 1 1 1 1 1 1 1 1 2 1 1 1 1 2 2 2 1 1 1 1 1 1 1 1 1 2 2 2 2 2 2 2 1 1 2 2 2 2 2 2 2 1 2 2 2 3 3 3 3 3
2 2 3 4 5 5 5 4 4 3 3 3 2 2 2 2 2 2 2 2 2 2 1 1 0 1 2 2 2 3 2 2 1 1 1 1 1 1 1 1 1 1 1 1 1 1 2 2 2 2 2 2 1 1 1 2 1 2 2 2 2 3 3 2 1 1 0 1 1 1 1 1 1 1 2 1 2 2 3 2 2 2 2 2 2
1 2 3 3 4 4 4 4 3 4 4 4 3 2 2 2 2 2 2 2 3 2 2 2 1 1 1 1 1 3 2 1 1 1 1 1 1 1 1 1 1 1 1 1 1 1 2 2 2 2 2 2 2 2 2 1 2 1 2 1 2 2 1 1 1 0 0 1 1 2 1 0 1 1 1 0 1 2 2 2 2 2 2 2 2
1 2 2 2 2 4 4 4 3 4 3 3 3 3 3 3 2 3 3 2 2 2 2 2 2 0 1 1 0 1 2 1 1 1 0 0 1 1 1 1 1 1 1 1 1 1 1 2 2 2 2 2 2 2 2 3 2 2 2 1 1 1 2 0 0 1 1 1 1 1 1 1 1 1 1 1 1 2 1 2 1 2 1 2 2
2 2 3 3 4 4 4 4 4 5 4 4 3 3 3 3 3 2 2 2 2 3 3 3 2 1 2 2 1 0 1 1 1 1 1 1 1 1 1 1 1 1 0 1 1 1 1 1 1 2 2 2 2 2 2 2 3 2 1 1 3 4 1 3 4 0 1 1 1 1 1 1 0 0 0 0 0 0 1 2 2 2 1 1 2
1 1 2 3 4 4 3 3 3 4 4 3 4 3 3 3 3 3 2 2 2 3 4 3 2 2 2 3 2 1 0 1 0 1 2 1 2 2 1 1 1 0 1 1 1 1 1 2 1 1 1 2 2 2 2 2 2 2 1 2 4 0 1 2 3 2 3 1 0 0 1 1 0 0 0 0 0 0 0 1 2 2 2 2 2
2 2 3 3 4 4 4 4 5 4 4 4 3 3 3 2 3 3 3 3 3 3 4 3 2 1 2 2 2 0 1 1 0 1 2 2 2 2 2 1 1 1 1 1 2 1 1 1 1 1 1 1 1 1 1 1 1 2 4 3 0 1 1 3 1 2 3 4 1 0 1 1 1 0 1 0 0 0 2 2 2 2 2 1 2
Wind_Direction
344 346 340 343 342 342 339 333 338 340 325 297 282 274 269 252 237 226 217 215 217 219 219 216 212 215 214 208 206 202 194 192 194 193 201 213 214 205 199 198 201 206 196 195 214 214 211 204 190 191 174 184 185 191 202 200 202 211 214 210 213 207 218 223 228 188 131 137 169 170 159 163 179 193 181 174 167 183 205 200 177 192 197 205 184
348 348 341 336 340 337 337 341 343 339 329 314 290 277 262 257 248 239 233 226 220 220 224 224 220 215 214 211 207 201 193 192 189 186 193 217 214 205 199 192 198 202 190 195 203 205 198 196 193 183 179 184 184 194 196 198 200 205 206 210 211 206 212 219 220 216 166 154 180 158 158 190 191 181 192 184 182 184 192 191 189 200 203 206 211
346 345 340 338 337 337 337 340 341 343 334 322 311 293 279 260 247 238 233 228 217 216 218 218 218 215 213 211 209 204 194 193 190 192 192 192 211 214 200 193 197 196 194 196 192 190 190 194 189 176 174 190 188 192 188 196 200 206 206 206 211 206 204 216 215 211 199 167 178 176 178 177 208 180 192 192 192 192 200 197 196 194 207 206 211
348 345 342 340 341 341 342 341 343 342 337 327 316 306 279 270 257 241 238 233 223 211 216 221 215 211 210 210 210 204 194 191 188 193 191 187 199 209 200 198 195 191 191 191 187 186 191 191 188 175 184 191 191 189 193 195 198 203 204 203 208 202 202 206 215 223 205 185 178 198 171 168 191 174 171 179 188 197 211 206 198 201 203 202 212
350 348 346 343 345 346 344 343 341 339 335 327 320 311 303 285 267 256 251 240 230 213 216 225 225 217 213 210 208 203 192 190 186 189 190 188 195 196 188 192 193 194 194 191 185 191 190 196 185 178 184 192 192 195 193 199 200 201 205 203 208 200 194 202 208 211 205 210 161 172 151 176 171 174 177 185 185 201 205 213 207 210 208 207 214
354 350 350 349 349 349 347 345 342 338 333 327 320 314 306 299 287 266 251 250 237 221 213 213 215 215 214 209 206 199 195 190 182 180 184 184 186 188 186 188 190 192 194 192 195 191 196 197 187 184 189 198 196 198 193 197 195 202 203 204 204 195 195 195 204 204 211 218 188 158 187 175 176 181 182 193 190 192 200 207 211 215 211 209 215
354 354 353 351 351 351 348 345 341 337 333 325 319 312 307 303 295 278 267 257 256 243 228 222 217 216 215 213 207 196 194 193 186 178 178 179 182 182 183 184 182 177 166 177 215 223 200 198 191 189 193 202 200 199 192 194 198 205 204 200 206 197 191 199 201 201 209 215 203 194 175 183 185 179 179 189 198 210 205 200 215 208 211 217 217
356 355 353 352 351 349 347 341 338 336 332 329 323 319 311 302 294 286 277 264 252 246 238 231 227 222 218 214 208 195 191 190 187 179 177 176 174 181 181 181 183 179 182 198 207 217 209 187 197 197 201 203 201 190 189 191 199 206 200 200 201 198 199 195 198 204 206 217 213 196 192 166 171 167 146 174 192 212 218 216 215 200 202 206 217
359 357 355 354 350 347 346 344 340 339 336 333 330 326 322 312 301 289 277 266 255 245 235 235 234 229 222 213 205 191 195 192 185 178 175 177 178 178 180 183 184 184 191 186 193 205 203 200 194 204 237 203 188 184 187 186 194 201 201 198 198 195 201 191 186 202 207 210 206 192 179 184 187 177 181 191 199 206 195 202 219 206 192 192 205
7 2 360 355 350 349 348 347 346 342 341 337 333 329 325 320 311 300 285 273 265 250 237 232 233 232 226 217 206 186 194 197 188 185 177 168 172 171 170 182 186 185 185 180 185 180 192 209 192 186 189 175 180 187 188 197 215 222 202 199 199 201 200 197 198 202 212 207 214 195 184 193 192 191 199 203 195 175 164 186 209 196 193 228 226
3 7 1 358 355 353 352 348 347 347 343 338 338 337 335 331 318 300 287 271 261 251 234 229 229 229 227 218 205 191 191 187 187 186 183 171 164 165 172 178 183 194 188 168 188 184 183 180 168 148 157 161 175 186 195 201 211 254 298 213 221 213 203 205 212 206 208 219 172 99 117 256 226 213 213 194 188 195 197 190 199 187 209 219 222
0 4 4 359 359 357 355 350 350 349 346 344 343 341 342 345 347 338 317 286 262 238 221 225 228 221 222 218 210 200 189 181 181 187 181 174 168 162 174 174 172 174 174 171 164 161 154 148 140 144 163 165 156 153 123 100 119 94 80 60 29 354 345 275 221 206 210 205 160 157 177 209 192 200 212 197 191 186 186 186 194 201 201 216 232
360 2 3 3 0 359 357 354 352 352 350 347 346 348 350 354 356 351 344 331 294 235 217 223 229 233 230 217 214 196 175 161 185 184 180 174 171 164 176 173 170 173 174 171 162 156 151 146 141 137 123 129 146 147 141 111 93 100 98 88 62 48 25 356 344 323 202 196 162 160 203 190 193 168 165 268 223 191 175 191 197 203 213 221 221
1 360 360 3 3 1 1 0 358 356 353 353 354 356 358 359 355 354 351 356 351 320 280 222 196 169 205 241 217 168 124 147 188 184 174 164 161 160 152 150 159 164 167 161 156 155 157 155 148 146 146 159 147 144 139 132 133 129 124 110 90 70 55 35 24 344 317 212 183 199 164 178 179 159 172 206 214 211 189 198 185 200 207 216 135
7 2 359 2 6 4 3 2 0 360 359 358 359 2 3 1 5 7 10 14 7 9 1 356 3 28 50 43 358 22 31 50 195 176 158 151 147 138 121 119 128 126 131 144 147 154 156 152 147 142 146 155 153 149 140 135 127 119 111 97 82 64 40 24 8 178 154 148 129 87 93 101 111 127 150 167 223 233 224 217 192 197 174 127 146
12 4 2 7 8 7 6 6 4 4 4 4 5 7 7 8 8 8 13 20 22 16 14 11 11 21 29 39 61 39 18 2 184 164 149 145 135 113 112 113 112 111 110 110 123 130 139 142 140 136 141 138 130 141 134 133 126 121 111 104 97 78 63 44 43 54 67 73 75 74 64 48 43 54 48 130 140 117 104 97 107 151 179 191 163
12 7 5 12 11 12 12 11 11 10 10 10 11 11 12 14 16 16 20 26 29 31 31 31 27 40 42 42 49 53 45 16 16 139 139 138 126 105 106 102 103 106 98 96 97 99 110 137 136 134 134 132 140 138 136 132 123 119 115 109 102 94 87 71 61 72 81 86 90 90 86 76 68 60 54 34 33 7 146 136 114 220 216 219 157
10 8 7 10 17 18 18 18 17 16 17 18 16 17 19 21 24 25 29 30 31 23 22 30 23 20 41 54 52 58 50 24 38 34 69 116 134 119 113 108 105 105 103 83 85 82 56 31 50 131 130 134 146 142 143 128 121 122 120 115 108 104 102 103 96 83 86 88 88 88 84 80 73 65 53 49 40 20 52 99 62 253 165 290 76
12 8 7 9 20 23 22 22 20 21 25 25 22 21 21 24 26 33 34 33 34 34 31 27 27 23 13 48 60 60 44 33 35 43 37 44 81 88 113 119 113 113 112 96 74 80 68 45 29 36 103 127 140 144 172 145 124 132 128 111 109 113 125 131 117 114 110 99 88 85 78 74 74 70 61 54 47 46 52 71 22 54 112 86 84
11 11 9 11 17 27 31 26 19 22 28 31 31 29 22 20 23 31 33 32 32 28 36 38 37 24 5 18 50 55 54 40 34 42 46 40 17 17 124 123 121 120 111 111 104 79 77 73 54 48 84 101 99 88 73 87 126 131 129 120 123 123 133 103 90 99 91 89 88 83 85 83 79 76 72 66 61 58 58 57 49 47 76 82 69
12 16 14 16 17 18 20 21 16 22 25 30 30 32 28 25 26 31 31 28 37 36 32 26 36 34 15 18 54 55 50 49 39 45 47 43 37 30 14 49 108 115 112 98 92 91 76 67 75 58 81 85 86 82 74 56 61 119 122 136 124 126 125 112 104 101 100 102 102 100 97 91 83 77 72 66 60 56 55 47 46 38 48 71 89
7 15 16 17 16 17 19 14 18 24 11 18 33 32 31 33 29 24 25 27 41 43 32 22 31 41 18 23 44 53 46 45 54 45 52 55 48 42 53 26 16 92 89 79 70 64 62 61 69 71 84 85 86 86 81 79 70 73 73 90 104 122 123 119 124 123 117 112 106 101 97 91 87 81 76 71 64 59 55 57 52 48 41 32 23
9 13 12 13 15 16 15 16 16 20 25 14 27 32 33 32 31 30 31 34 32 39 34 27 25 37 37 32 35 43 43 40 47 50 47 58 63 61 57 59 46 50 73 72 64 67 67 69 67 66 72 76 79 81 88 91 85 93 100 98 102 109 118 115 117 116 109 102 98 94 89 88 87 81 71 69 65 55 56 56 59 66 74 64 33
11 13 11 11 10 13 14 17 16 13 12 9 17 28 28 29 33 31 32 32 33 38 34 30 32 33 35 35 30 29 37 43 43 46 47 52 62 67 71 70 71 69 68 68 65 69 66 60 61 60 67 70 70 68 64 67 83 89 93 100 103 104 109 113 109 106 108 107 100 91 83 79 83 78 69 65 64 65 63 63 68 71 78 90 93
15 12 12 12 11 7 13 20 20 18 17 28 31 23 25 28 36 33 38 38 38 38 33 31 38 36 36 42 39 34 35 42 44 46 50 52 59 65 67 68 72 82 78 68 72 69 74 74 64 55 50 53 60 65 63 63 67 65 64 61 70 90 91 98 105 107 100 93 93 91 85 74 74 77 75 75 92 104 103 100 91 87 97 93 82
15 13 10 9 9 10 14 17 25 22 18 21 27 21 14 25 36 33 39 42 38 36 29 34 36 37 37 34 36 36 37 42 43 43 48 57 61 63 67 69 69 72 82 85 77 68 62 60 62 58 47 40 45 38 42 56 70 65 55 48 52 47 52 79 81 90 92 94 91 96 99 105 98 94 99 101 85 68 58 67 80 82 89 103 99
8 13 9 7 10 12 16 12 11 24 17 14 19 18 13 12 28 33 31 35 43 41 36 34 37 37 39 36 34 35 39 37 34 33 36 49 52 55 59 62 61 65 65 67 72 71 58 54 58 63 66 53 50 45 35 26 46 52 53 50 53 47 41 44 60 77 85 90 96 97 100 101 119 124 97 86 78 69 49 62 79 81 85 89 97
359 7 7 12 13 6 12 5 3 25 19 17 16 12 8 11 26 31 22 16 24 37 41 45 46 44 43 41 42 43 42 38 28 26 24 45 60 61 60 60 59 59 69 68 68 64 65 54 44 36 47 49 43 40 38 36 38 56 55 55 58 65 71 69 65 63 63 73 92 104 109 116 101 92 87 81 84 76 62 70 77 84 74 85 82
4 5 1 11 13 2 359 12 21 18 23 31 46 38 22 8 10 32 32 22 15 23 44 47 48 50 52 48 56 54 40 35 16 352 49 53 61 68 69 76 75 68 63 79 72 61 61 55 46 36 36 49 52 53 49 55 47 49 55 53 58 59 54 54 72 72 82 94 92 89 95 95 93 93 94 87 75 68 57 81 66 75 74 72 74
12 8 4 8 9 360 1 4 9 18 22 18 18 69 86 58 38 32 30 16 39 40 38 47 33 47 59 46 39 57 54 19 7 44 56 64 67 69 71 73 79 87 75 66 77 79 69 74 59 57 50 63 69 52 26 36 54 56 52 55 55 68 72 69 69 78 73 79 78 81 74 77 79 79 84 87 83 74 52 50 73 76 93 90 85
15 12 3 5 5 354 1 2 5 8 11 7 16 19 34 60 58 48 37 27 36 37 39 34 32 31 52 87 58 50 54 56 56 56 58 63 68 69 68 68 69 60 36 67 53 65 77 79 76 69 66 81 86 85 70 69 73 80 72 60 55 66 71 75 76 81 77 80 66 61 62 69 75 73 83 85 91 88 86 81 86 84 79 75 71
12 8 4 359 355 10 2 8 4 10 10 7 4 355 10 28 55 53 44 39 41 42 35 27 23 26 32 38 54 55 46 51 62 69 73 75 74 70 62 57 51 53 58 86 79 68 73 93 100 105 114 98 93 93 77 71 58 82 105 80 61 41 59 69 53 75 73 68 72 73 73 78 83 84 84 87 88 91 91 87 81 75 73 68 60
6 0 357 354 356 11 10 12 13 13 9 4 359 356 359 8 19 26 33 57 60 51 38 26 17 18 31 45 54 72 77 78 80 79 81 81 81 78 74 60 48 31 43 59 101 94 92 97 106 111 101 101 100 90 76 75 74 46 52 71 75 63 65 70 56 68 58 62 78 81 85 93 94 89 83 83 91 91 82 71 64 61 58 61 62
1 4 355 340 351 9 9 11 13 16 13 5 360 357 1 2 6 2 5 13 22 78 63 42 25 18 36 42 46 49 59 70 72 77 80 83 85 83 82 75 67 56 69 83 74 101 107 105 101 103 101 102 96 81 79 74 66 75 74 73 78 78 76 66 75 77 82 81 81 85 83 80 91 102 102 96 87 80 73 64 55 56 54 48 37
6 1 1 354 358 4 5 9 12 16 17 10 5 354 357 355 350 354 5 7 16 19 6 25 38 34 38 34 35 43 54 60 63 67 71 79 86 91 91 72 60 48 56 63 73 86 89 94 105 107 106 99 89 90 92 90 81 76 81 87 87 84 80 74 73 74 84 85 82 80 79 85 78 75 76 77 73 71 66 63 58 50 49 39 35
7 3 360 2 360 360 3 13 15 19 15 15 5 358 345 343 346 2 8 14 11 14 34 38 47 38 50 49 45 45 47 51 53 49 33 13 345 335 59 77 78 66 69 64 73 77 85 93 96 94 96 101 103 97 95 92 84 81 81 89 92 92 90 89 87 79 76 83 87 94 95 85 80 88 89 80 70 65 62 55 55 50 35 30 31
8 5 5 1 354 347 344 5 28 19 12 8 12 14 7 355 351 343 3 19 16 11 24 37 66 92 71 58 50 56 57 60 59 56 46 34 22 66 81 92 98 97 93 96 93 93 91 89 90 94 88 89 92 97 98 95 94 92 86 86 89 90 82 82 85 93 96 93 89 79 78 78 68 63 69 71 70 68 65 63 65 57 43 349 305
15 7 359 350 341 346 350 353 12 333 15 20 23 19 21 16 7 359 9 25 24 8 0 21 23 37 53 60 30 51 36 154 171 68 45 45 48 69 85 94 100 105 104 101 99 100 97 98 101 103 102 99 98 102 101 101 101 103 101 93 89 89 107 99 90 91 97 101 97 92 87 77 68 68 67 63 62 66 64 54 39 56 64 40 28
11 15 0 340 334 347 345 343 351 7 18 21 27 21 27 25 23 17 14 24 28 16 348 348 15 32 41 15 34 340 292 30 31 33 34 43 52 66 88 97 102 100 103 104 105 108 110 105 103 106 108 111 110 109 107 106 104 105 108 114 119 125 123 109 109 105 102 96 90 83 79 74 68 62 60 70 71 67 66 56 50 37 32 36 35
359 359 11 351 347 353 340 348 344 4 14 7 25 15 27 29 28 30 20 19 30 25 4 0 358 45 25 4 7 346 23 33 35 32 46 56 66 71 83 99 106 114 117 118 114 112 104 104 107 111 111 111 112 109 108 109 110 112 120 120 115 108 108 111 104 98 92 86 81 76 74 76 75 74 73 71 69 63 52 52 47 39 30 24 19
351 352 349 359 1 332 349 347 8 11 8 7 3 20 28 26 21 15 19 21 18 20 41 31 29 30 23 8 9 356 332 15 33 40 49 59 78 90 87 81 87 108 109 104 116 119 118 116 116 118 121 122 120 119 116 114 126 125 115 112 110 109 100 88 87 87 82 80 81 83 83 77 76 77 79 75 47 25 56 43 55 52 49 38 14
345 348 354 352 344 354 351 357 4 347 339 4 8 5 12 20 20 13 11 3 11 13 27 49 56 42 41 25 29 20 15 23 8 35 37 59 79 90 76 72 54 68 86 104 117 130 129 126 125 129 132 131 132 125 126 131 131 128 128 124 120 118 108 97 88 72 81 89 80 74 76 68 67 69 60 10 62 71 60 56 67 60 47 44 47
337 348 352 349 350 354 349 344 332 349 358 1 13 352 328 350 14 4 5 7 9 20 25 39 46 41 29 20 14 6 28 16 7 356 24 80 82 72 62 67 51 39 47 56 61 100 127 130 131 134 129 125 132 145 144 136 134 129 128 123 117 109 104 99 95 91 89 85 82 68 64 96 106 94 82 75 75 73 66 60 68 66 55 41 40
351 351 357 350 348 338 332 339 344 349 353 350 311 323 333 343 13 13 7 14 16 26 46 73 102 111 85 55 29 21 21 8 1 6 46 59 71 80 66 51 48 45 47 62 63 71 113 132 131 111 102 93 86 62 53 60 54 114 123 124 112 98 97 91 82 71 70 92 101 104 101 87 95 112 100 72 65 75 81 60 54 44 35 49 42
355 358 355 354 352 339 333 340 349 342 332 302 302 319 315 326 356 12 356 360 13 12 30 75 60 69 70 45 9 333 32 46 26 19 24 29 54 59 66 78 75 63 61 61 51 61 85 97 108 111 109 105 82 82 75 72 43 15 20 45 110 119 95 69 52 35 12 341 138 131 135 140 136 119 119 101 64 56 61 55 47 18 42 43 42
358 349 353 349 347 347 336 341 336 329 328 328 318 311 322 313 318 333 345 349 340 347 352 21 46 18 9 12 358 355 29 70 74 49 42 26 39 46 33 49 63 57 58 54 48 38 48 55 75 85 92 88 86 85 90 79 67 58 48 37 31 43 52 53 56 44 11 308 293 142 131 134 124 75 19 18 70 43 46 34 32 27 32 51 53
339 341 346 348 347 341 338 332 327 334 329 329 317 293 288 299 306 318 304 327 328 316 326 338 333 21 35 350 357 351 5 50 84 64 85 84 74 26 35 46 61 64 57 49 38 61 71 63 70 74 75 77 87 89 95 99 103 99 77 67 66 62 68 68 90 243 247 273 298 292 316 25 117 145 149 8 73 65 39 45 48 31 11 32 55
334 334 342 333 323 333 339 335 318 292 297 308 308 304 284 278 280 283 300 285 265 278 296 304 318 89 204 242 305 359 8 34 70 94 97 134 115 105 78 61 67 68 59 55 50 48 58 73 75 79 86 82 82 86 89 89 88 84 86 83 71 48 59 193 221 224 219 211 225 255 267 285 43 52 60 46 26 28 26 42 30 65 30 38 43
320 334 331 322 327 321 330 328 327 323 323 313 306 291 289 277 271 280 277 279 284 283 292 300 315 323 287 279 266 270 96 75 8 101 107 101 106 104 104 90 75 56 64 77 76 80 84 80 73 80 75 83 77 73 74 74 80 87 77 77 74 60 282 270 282 11 311 243 222 236 264 270 285 47 43 28 47 32 57 36 16 14 36 34 38
308 305 306 312 308 317 318 306 308 311 309 304 304 304 297 285 266 249 243 226 229 256 275 289 285 278 282 309 320 318 40 60 69 137 133 143 121 110 104 111 117 124 132 127 120 110 105 107 103 92 84 80 82 81 82 81 69 68 74 68 65 321 288 239 264 312 263 246 256 283 318 315 305 298 69 95 100 40 355 40 14 355 20 26 44
305 303 306 305 311 312 313 322 323 314 304 305 301 298 290 285 271 239 229 236 241 254 275 289 282 253 251 302 341 261 142 151 194 200 146 142 137 128 135 149 157 153 140 132 136 140 129 124 118 111 113 107 97 88 79 75 84 66 48 50 306 292 264 275 242 147 319 307 272 235 238 263 278 249 210 174 213 69 20 339 350 353 347 36 52